Date,TemperatureHighF,TemperatureAvgF,TemperatureLowF,DewpointHighF,DewpointAvgF,DewpointLowF,HumidityHigh,HumidityAvg,HumidityLow,PressureMaxIn,PressureMinIn,WindSpeedMaxMPH,WindSpeedAvgMPH,GustSpeedMaxMPH,PrecipitationSumIn
2013-5-1,50,46,43,-100,-100,-100,0,0,100,30.30,29.83,23,22,0,0.00
2013-5-2,50,45,42,47,-75,-100,96,16,96,30.31,30.17,23,22,0,0.00
2013-5-3,55,50,45,-100,-100,-100,0,0,100,30.15,30.14,28,24,0,0.00
2013-5-4,56,56,56,-100,-100,-100,0,0,100,30.12,30.12,23,23,0,0.00
2013-5-5,57,54,49,45,41,39,86,62,50,30.11,30.10,17,13,0,0.00
2013-5-6,54,52,50,45,-76,-100,71,12,71,30.10,30.07,9,6,0,0.00
2013-5-7,57,54,47,-100,-100,-100,0,0,100,30.05,30.05,14,10,0,0.00
2013-5-8,58,54,49,-100,-100,-100,0,0,100,30.05,30.01,11,9,0,0.00
2013-5-9,73,73,72,-100,-100,-100,0,0,100,29.98,29.96,14,5,0,0.00
2013-5-10,44,41,43,-100,-100,-100,0,0,100,29.89,29.87,38,35,0,0.00
2013-5-11,46,41,36,-100,-100,-100,0,0,100,29.86,29.69,39,22,0,0.00
2013-5-12,41,39,38,-100,-100,-100,0,0,100,29.96,29.89,38,34,0,0.00
2013-5-13,47,40,36,-100,-100,-100,0,0,100,30.11,30.00,23,22,0,0.00
2013-5-14,46,44,43,-100,-100,-100,0,0,100,30.00,29.73,25,11,0,0.00
2013-5-15,65,51,43,-100,-100,-100,0,0,100,29.68,29.58,21,19,0,0.00
2013-5-16,57,49,47,-100,-100,-100,0,0,100,30.06,29.89,29,23,0,0.00
2013-5-17,57,53,48,-100,-100,-100,0,0,100,30.20,30.14,18,16,0,0.00
2013-5-18,57,53,49,-100,-100,-100,0,0,100,30.15,30.13,20,11,0,0.00
2013-5-19,58,54,51,-100,-100,-100,0,0,100,29.97,29.95,13,7,0,0.00
2013-5-20,84,61,50,-100,-100,-100,0,0,100,29.85,29.69,32,22,0,0.00
2013-5-21,50,50,50,-100,-100,-100,0,0,100,29.69,29.66,22,19,0,0.00
2013-5-22,55,54,53,-100,-100,-100,0,0,100,29.71,29.71,17,14,0,0.00
2013-5-23,47,46,44,-100,-100,-100,0,0,100,29.89,29.74,40,30,0,0.00
2013-5-24,45,44,43,42,-64,-100,95,24,95,30.36,30.32,16,16,0,0.00
2013-5-25,55,52,45,-100,-100,-100,0,0,100,30.39,30.30,13,10,0,0.00
2013-5-26,68,52,47,-100,-100,-100,0,0,100,30.30,30.00,16,14,0,0.00
2013-5-27,47,47,47,-100,-100,-100,0,0,100,30.26,30.26,8,8,0,0.00
2013-5-28,53,48,45,-100,-100,-100,0,0,100,30.01,29.98,21,18,0,0.00
2013-5-30,71,71,71,67,67,67,87,87,87,30.00,30.00,14,14,0,0.00